Location: Unspecified
(0.0000°N, 0.0000°E)
Time: 18:31:42
(UTC+00:00)

STARLINK 1053 - Pass Details

Date: 21 January 2020
Orbit: 548 x 551 km, 53.0° (Epoch: 17 January)

Event Time Altitude Azimuth Distance (km) Brightness Sun altitude
Rises 05:10:38 0° 213° (SSW) 2,712 7.0 -14.2°
Reaches altitude 10° 05:12:53 10° 213° (SSW) 1,817 6.1 -13.7°
Maximum altitude 05:17:01 86° 122° (ESE) 552 3.6 -12.7°
Drops below altitude 10° 05:21:07 10° 35° (NE) 1,808 6.4 -11.7°
Sets 05:23:20 0° 35° (NE) 2,698 7.3 -11.2°
